Погода в Старомихайловском

Россия / Калужская область     55°12′46″N   36°41′48″E
темп.,
°C
ветер,
м/с
пор.,
м/с
влажн.,
%
обл.,
%
осадки,
мм/ч
давл.,
гПа
погр.,
м
16 января, вс
вс1600:00−5сз61387100 0.1 1004822
03:00−5сз51389100 0.1 1006735
06:00−4сз4129399 0.1 1007639
09:00−5сз41094100 0.2 1009440
12:00−4зсз4793100 0.1 1011659
15:00−5з379395 0.2 1011376
18:00−9зюз3109761 0.0 1010216
21:00−9юз3109669 0.0 1009229
17 января, пн
пн1700:00−8юз5159594 0.0 1006370
03:00−6юз61692100 0.0 1001540
06:00−5юз61689100 0.0 996634
09:00−5ююз71595100 1.2 992801
12:00−3ююз71492100 0.6 989837
15:00−2ююз61392100 0.8 986801
18:00−1ююз51396100 0.6 985817
21:00−1ююз51297100 1.4 984797
18 января, вт
вт1800:00−2з4893100 0.4 986482
03:00−9зюз249899 0.4 98953
06:00−9з2597100 0.0 992110
09:00−9сз2897100 0.1 995174
12:00−7с61394100 0.5 1000668
15:00−7с71592100 1.3 1004777
18:00−8с71588100 0.3 1008731
21:00−10с61590100 0.3 1012620
19 января, ср
ср1900:00−11ссз51491100 0.0 1014498
03:00−13ссз4119487 0.1 1016326
06:00−15сз399882 0.0 1017183
09:00−19сз2310066 0.0 101930
12:00−13ссз259351 0.0 1019170
15:00−11зсз12945 0.0 101891
18:00−19зюз1110066 0.0 10199
21:00−22ю22100100 0.0 101918
20 января, чт
чт2000:00−19ююз26100100 0.0 101883
03:00−15ю3993100 0.0 1017182
06:00−12ю41295100 0.1 1015319
09:00−10ю41395100 0.5 1015389
12:00−8ю51594100 0.4 1014470
15:00−7ю61593100 0.9 1013541
18:00−8ю51584100 0.1 1012522
21:00−9ю61687100 0.1 1012573